TimeEDT,TemperatureF,Dew PointF,Humidity,Sea Level PressureIn,VisibilityMPH,Wind Direction,Wind SpeedMPH,Gust SpeedMPH,PrecipitationIn,Events,Conditions,WindDirDegrees,DateUTC
12:52 AM,24.1,21.0,88,29.82,10.0,Calm,Calm,-,N/A,,Clear,0,2013-03-27 04:52:00
1:52 AM,24.1,21.0,88,29.82,10.0,Calm,Calm,-,N/A,,Clear,0,2013-03-27 05:52:00
2:52 AM,23.0,19.9,88,29.81,10.0,Calm,Calm,-,N/A,,Clear,0,2013-03-27 06:52:00
3:52 AM,21.9,19.9,92,29.81,10.0,Calm,Calm,-,N/A,,Clear,0,2013-03-27 07:52:00
4:52 AM,21.0,19.0,92,29.81,10.0,Calm,Calm,-,N/A,,Clear,0,2013-03-27 08:52:00
5:52 AM,19.9,18.0,92,29.82,10.0,Calm,Calm,-,N/A,,Clear,0,2013-03-27 09:52:00
6:52 AM,19.9,18.0,92,29.84,9.0,Calm,Calm,-,N/A,,Clear,0,2013-03-27 10:52:00
7:52 AM,24.1,21.9,91,29.85,8.0,Calm,Calm,-,N/A,,Partly Cloudy,0,2013-03-27 11:52:00
8:52 AM,32.0,23.0,69,29.84,10.0,Calm,Calm,-,N/A,,Clear,0,2013-03-27 12:52:00
9:52 AM,42.1,23.0,47,29.83,10.0,Calm,Calm,-,N/A,,Partly Cloudy,0,2013-03-27 13:52:00
10:52 AM,46.0,23.0,40,29.82,10.0,NNW,10.4,-,N/A,,Overcast,330,2013-03-27 14:52:00
11:52 AM,48.9,24.1,38,29.81,10.0,WNW,15.0,19.6,N/A,,Clear,290,2013-03-27 15:52:00
12:52 PM,50.0,21.9,33,29.79,10.0,West,10.4,17.3,N/A,,Scattered Clouds,280,2013-03-27 16:52:00
1:52 PM,48.0,21.9,36,29.79,10.0,North,10.4,20.7,N/A,,Overcast,360,2013-03-27 17:52:00
2:52 PM,48.0,21.0,34,29.79,10.0,NNW,17.3,23.0,N/A,,Overcast,330,2013-03-27 18:52:00
3:52 PM,48.0,21.9,36,29.80,10.0,NNW,11.5,-,N/A,,Overcast,330,2013-03-27 19:52:00
4:52 PM,48.0,21.9,36,29.81,10.0,NNW,9.2,-,N/A,,Overcast,330,2013-03-27 20:52:00
5:52 PM,45.0,26.1,48,29.83,10.0,West,13.8,-,N/A,,Scattered Clouds,280,2013-03-27 21:52:00
6:52 PM,42.1,27.0,55,29.86,10.0,WNW,5.8,-,N/A,,Mostly Cloudy,290,2013-03-27 22:52:00
7:52 PM,41.0,30.0,65,29.87,10.0,WNW,5.8,-,N/A,,Overcast,300,2013-03-27 23:52:00
8:52 PM,41.0,30.0,65,29.88,10.0,WNW,6.9,-,N/A,,Overcast,290,2013-03-28 00:52:00
9:52 PM,39.9,30.0,68,29.89,10.0,NW,5.8,-,N/A,,Overcast,310,2013-03-28 01:52:00
10:52 PM,37.9,28.9,70,29.90,10.0,Calm,Calm,-,N/A,,Scattered Clouds,0,2013-03-28 02:52:00
11:52 PM,39.0,28.0,65,29.90,10.0,North,8.1,-,N/A,,Overcast,350,2013-03-28 03:52:00